TimeWET,TemperatureF,Dew PointF,Humidity,Sea Level PressureIn,VisibilityMPH,Wind Direction,Wind SpeedMPH,Gust SpeedMPH,PrecipitationIn,Events,Conditions,WindDirDegrees,DateUTC
12:00 AM,53,49,80,30.12,3,WNW,2.3,,,,Clear,290,2012-11-22 00:00:00
12:00 AM,51.8,48.2,88,30.12,3.1,WNW,2.3,-,N/A,,Scattered Clouds,290,2012-11-22 00:00:00
1:00 AM,53.6,50.0,88,30.12,3.1,WNW,2.3,-,N/A,,Scattered Clouds,290,2012-11-22 01:00:00
2:00 AM,51.8,50.0,94,30.12,3.1,WNW,2.3,-,N/A,,Scattered Clouds,290,2012-11-22 02:00:00
3:00 AM,51,48,87,30.13,3,SSE,2.3,,,,Clear,160,2012-11-22 03:00:00
3:00 AM,51.8,48.2,88,30.12,3.1,SSE,2.3,-,N/A,,Scattered Clouds,160,2012-11-22 03:00:00
4:00 AM,51.8,48.2,88,30.12,3.1,SSE,2.3,-,N/A,,Scattered Clouds,160,2012-11-22 04:00:00
5:00 AM,50.0,48.2,94,30.12,3.1,SSE,2.3,-,N/A,,Scattered Clouds,150,2012-11-22 05:00:00
6:00 AM,47,45,91,30.14,3,SSE,2.3,,,,Clear,150,2012-11-22 06:00:00
6:00 AM,48.2,44.6,87,30.12,3.1,SSE,2.3,-,N/A,,Partly Cloudy,150,2012-11-22 06:00:00
7:00 AM,50.0,46.4,87,30.12,3.7,SE,4.6,-,N/A,,Partly Cloudy,140,2012-11-22 07:00:00
8:00 AM,48.2,46.4,93,30.15,5.0,Calm,Calm,-,N/A,,Partly Cloudy,0,2012-11-22 08:00:00
9:00 AM,56,51,79,30.16,5,Calm,Calm,,,,Scattered Clouds,,2012-11-22 09:00:00
9:00 AM,55.4,50.0,82,30.18,5.0,Calm,Calm,-,N/A,,Unknown,0,2012-11-22 09:00:00
10:00 AM,59.0,51.8,77,30.18,5.0,ESE,4.6,-,N/A,,Partly Cloudy,120,2012-11-22 10:00:00
11:00 AM,59.0,51.8,77,30.18,5.0,NE,2.3,-,N/A,,Partly Cloudy,40,2012-11-22 11:00:00
12:00 PM,64,53,57,30.11,5,NE,2.3,,,,Scattered Clouds,50,2012-11-22 12:00:00
12:00 PM,64.4,51.8,64,30.15,5.0,NE,2.3,-,N/A,,Partly Cloudy,50,2012-11-22 12:00:00
1:00 PM,66.2,51.8,60,30.12,5.0,NNE,2.3,-,N/A,,Partly Cloudy,30,2012-11-22 13:00:00
2:00 PM,66.2,53.6,64,30.12,6.2,NNW,4.6,-,N/A,,Partly Cloudy,340,2012-11-22 14:00:00
3:00 PM,65,52,54,30.06,6,NW,4.6,,,,Scattered Clouds,320,2012-11-22 15:00:00
3:00 PM,66.2,51.8,60,30.12,6.2,NW,2.3,-,N/A,,Partly Cloudy,320,2012-11-22 15:00:00
4:00 PM,64.4,50.0,59,30.12,6.2,NNW,4.6,-,N/A,,Partly Cloudy,340,2012-11-22 16:00:00
5:00 PM,60.8,53.6,77,30.12,6.2,WNW,5.8,-,N/A,,Partly Cloudy,300,2012-11-22 17:00:00
6:00 PM,58,52,74,30.11,6,WNW,2.3,,,,,300,2012-11-22 18:00:00
6:00 PM,59.0,51.8,77,30.12,-9999.0,WNW,2.3,-,N/A,,Clear,300,2012-11-22 18:00:00
7:00 PM,57.2,53.6,88,30.15,-9999.0,NNW,2.3,-,N/A,,Clear,340,2012-11-22 19:00:00
8:00 PM,53.6,50.0,88,30.15,-9999.0,SSW,2.3,-,N/A,,Clear,210,2012-11-22 20:00:00
9:00 PM,53,51,89,30.16,6,SSE,3.5,,,,,150,2012-11-22 21:00:00
9:00 PM,53.6,50.0,88,30.15,-9999.0,SSE,3.5,-,N/A,,Clear,150,2012-11-22 21:00:00
10:00 PM,53.6,50.0,88,30.15,-9999.0,SSE,5.8,-,N/A,,Clear,150,2012-11-22 22:00:00
11:00 PM,53.6,48.2,82,30.15,-9999.0,SE,5.8,-,N/A,,Clear,130,2012-11-22 23:00:00